FENGYUN 1C DEB, 46444

Orbit data source: Space-Track

FENGYUN 1C DEB, 46444 is space debris in SSO originally from a launch on Mon, 10 May 1999 UTC launched from the Taiyaun Space Center, China (TSC). Fengyun 1C debris stems from the Chinese weather satellite Fengyun-1C, which was intentionally destroyed by a Chinese anti-satellite missile in 2007. This event dramatically increased the amount of space debris, with thousands of trackable fragments posing hazards to satellites and human spaceflight. The Fengyun 1C debris cloud has become a focal point in discussions about space sustainability and the need for international regulations to prevent the creation of new debris.

Loading next visibility...
Identifier
46444, 1999-025EYZ
Orbit
SSO
Country
Flag of CNCN / PRC
Related business
Manufacturer
Unknown
Mission
Spacecraft
Bus & Motor
Unknown
Mass
Unknown
Launch date (UTC)
1999-05-10 (27 years ago)
Launch vehicle
Unknown
Launch site
Taiyaun Space Center, China (TSC)
Object type
Payload
Rocket body
Debris
Shape & HBR
Unknown shape, 0.1 m
Radar Cross Section
Small (<0.1 m²)

Expand to show TLE details & history
Last TLE update: 3 days ago

TLE from 3 days ago
0 FENGYUN 1C DEB
1 46444U 99025EYZ 25347.24217887  .00001848  00000-0  74567-3 0  9990
2 46444  98.5132 349.2232 0084448 149.4207 272.1575 14.27157872625895
Epoch: 2025-12-13T05:48Z
TLE epoch observation values (Epoch: 2025-12-13T05:48:44.254Z)
Latitude
59.60604°
Longitude
165.16154°
Altitude
809.571 km
Speed
7.455 km/s
True Right ascension
22h 18m 04s
True Declination
59° 27' 25"
Sunlit
Object was in daylight at epoch
Visualization orbit readout
Latitude
Unknown
Longitude
Unknown
Altitude
Unknown
Speed
Unknown
Apparent Right ascension
Unknown
Apparent Declination
Unknown
Sunlit
N/A
Visualization observer readout
Local Sidereal Time
18:01:25
Azimuth
Unknown
Elevation
Unknown
Doppler factor
Unknown
Orbital elements
Apogee altitude
858.99 km
Perigee altitude
737.782 km
Semi-major axis
7,176.523 km
Eccentricity
0.00844
Inclination
98.5132°
RAAN
349.2232°
Arg. of periapsis
149.4207°
True anomaly
271.19014°
Mean anomaly
272.1575°
Eccentric anomaly
271.67386°
Mean motion
3.57003 °/min
Orbital period
100.84 mins
BSTAR
0.00074567
Loading maneuver chart data...
Computing Atmospheric mass density...

Documentation

Showing up to 5 results
|